Timeline UpdatesTrip UpdatesNews PostsPvt PostsTravel TipsAdmin PostsConv PostsFollowed PostsChat RequestsBlog PostsPNR Posts

Disclaimer
Search
 
 
Mon Jul 28, 2014 17:53:11 ISTHomeTrainsΣChainsAtlasPNRForumGalleryNewsFAQTripsMembersLoginFeedback
No Recent News for this Train
Other Trains in the News **new
Latest...
hauled by WDM-3 of ABOHAR.
Wed Sep 07, 2011 (01:35PM)
⇐ Return Journey: Train# 54757

54758/Shri Ganganagar - Ambala Cantt Passenger (UnReserved)

Aug 28 2013 (5:59PM)
Change Departure Station:
Change Arrival Station:
Post a Train Travel TipPost a Train Travel Tip **new
Post a Comment/Question/Picture/VideoPost a Comment/Question/Picture/Video
Pantry/Catering
✕ NO Pantry Car
✕ NO Catering
RSA - Rake Sharing
Rake/Coach Composition
LOCO-SLR-GEN-GEN-GEN-GEN-GEN-GEN-GEN-SLR; [Informed by: Vicky Shotra in Blog Entry#838076]
Loco
TKD WDP-1 or WDM-3 of LDH/ABR
News    PNR    Forum    Time-Table    Availability    Fare Chart    Map    Arr/Dep History    Trips    Gallery    ΣChains    X/O    Timeline    
Travel Time: 0h 19m    0 halts    Distance: 8 km    Avg Speed: 25 km/hr
Type: Passenger
Zone: NWR/North Western
Departs @ 19:16 (Avg 23m late)
Platform# 2
SMTWTFS
Ambala City/UBC 
Arrives @ 19:35 (Avg 12m late)
Platform# 4
SMTWTFS
Ambala Cantt. Junction/UMB 

0 halts. 0 intermediate Stations between Ambala City and Ambala Cantt. Junction

Show ALL intermediate Stations  Show Old Time-Table

#CodeStation NameX/OArrivesAvgDepartsAvgHaltPFDay#KmSpeedElevZoneAddress
1SGNRShri Ganganagar  -10:45+13--1-319.868178mNWRSri Ganganagar, Rajasthan
2MOPRMohanpura  10:51-10:53-2m--1-313.074177mNRNational Highway 15, Rajasthan
3FTHFatuhi  11:00+2111:02+212m--1-304.474182mNRNational Highway 15, Rajasthan
4ORKIOrki  11:06-11:08-2m--1-299.561179mNRNational Highway 15, Rajasthan
5HMKHindumalkoteX  11:15+2311:17+342m--1-292.39181mNRNational Highway 15, Rajasthan
6KTPKKotha Pakki  11:30-11:32-2m--1-290.456183mNRNational Highway 15, Rajasthan
7BKWABakayanwala  11:36-11:38-2m--1-286.773184mNRDiwan Khera, Rajasthan
8PJKPanj Kosi  11:43+2711:45+272m--1-280.674186mNRDiwan Khera, Rajasthan
9KLWLKilanwali Punjab  11:50-11:52-2m--1-274.442186mNRNational Highway 15, Punjab
10ABSAboharX  12:03+2512:05+322m--1-266.743186mNRAbohar, Punjab
11BFEBahawal Basi  12:16-12:18-2m--1-258.978190mNRNational Highway 15, Punjab
12PKKPakki  12:24+2812:26+282m--1-251.069193mNRNational Highway 15, Punjab
13MOTMalout (1)  12:38+3012:40+332m11-237.256194mNRMalaut, Punjab
14FSRFaqarsar  12:48-12:50-2m--1-229.831195mNRFakarsar, Punjab
15GDBGiddarbahaX  13:07+2813:09+342m--1-221.039200mNRGiddarbaha, Punjab
16BHXBulluana  13:27+2913:29+282m--1-209.466204mNRBalluana, Punjab
17BWXBahman Diwana  13:35-13:37-2m--1-202.732206mNRBehman Diwana, Punjab
18BTIBathinda Junction (6)  13:55+1314:10+1115m--1-193.267208mNRBathinda, Punjab
19BTICBathinda Cantt. (1)  14:19+2614:21+272m11-183.247207mNRBathinda, Punjab
20BCUBhuchchu (1)  14:30+2814:32+302m11-176.256213mNRBhucho Mandi, Punjab
21LHMLehra Muhabbat (1)  14:40+3214:42+332m11-168.676216mNRNational Highway 64, Punjab
22PULRampura Phul (1)  14:48+3614:50+372m11-161.162220mNRRampura Phul, Punjab
23JHKJethuke (1)  14:58-15:00-2m11-152.859220mNRJettuke, Punjab
24TAPATapa (1)  15:05+3715:07+382m11-147.955223mNRTapa Mandi, Punjab
25GUNSGhunas (1)  15:13-15:15-2m11-142.457223mNRGhunas Railway Station, Punjab
26HYAHadiaya (1)  15:23+3715:24+371m11-134.860230mNRKhudi Rd, Punjab
27BNNBarnala (1)X  15:30+3815:32+402m11-128.862233mNRBarnala, Punjab
28SEQSekha (1)  15:41+4315:43+472m11-119.571237mNROff Rd, Punjab
29ALALAlal (1)  15:50+4915:52+512m--1-111.260237mNRMullowal, Punjab
30DUIDhuri Junction (4)  16:05+3516:30+2625m--1-98.170248mNRDhuri, Punjab
31KLSXKaulseri (1)  16:36+4016:38+422m11-91.155247mNRSherpur Sodhian, Punjab
32CTWChhintanwala (1)  16:45+4316:47+432m11-84.776247mNRSherpur Sodhian Link Rd, Punjab
33KKRLKakrala (1)  16:53-16:55-2m11-77.071246mNRNabha, Punjab
34NBANabha (1)  17:00+3117:02+322m11-71.132250mNRNabha, Punjab
35DBNDhablan (1)X  17:27+3617:29+442m11-57.930253mNRGurudwara Ishar Darbar Rd, Punjab
36PTEPatiala Cantt. (1)  17:45-17:47-2m11-49.946254mNRPatiala, Punjab
37PTAPatiala (4)  17:53+2017:55+232m21-45.327256mNRPatiala, Punjab
38DOCDaun Kalan (1)  18:14+3218:16+322m11-36.738257mNRNational Highway 64, Punjab
39KLIKauli (1)  18:24+3318:25+371m11-31.737266mNRNational Highway 64, Punjab
40RPJRajpura Junction (3)X  18:43+1618:45+172m31-20.551272mNRNH-1, Punjab
41SMUSambhu (2)X  18:58+3419:00+332m11-9.541270mNRNH-1, Punjab
42UBC»Ambala City (3)»  19:14+2219:16+232m210.024273mNRNH-1, Haryana
43UMB•Ambala Cantt. Junction (7)•  19:35+12-417.6-278mNRAmbala 133001, Haryana
Scroll to Top
Scroll to Bottom